DW5679 Weather Reports


Display with metric or nautical units.
time (UTC)temp
F
wind
direction
speed
MPH
gust
MPH
rain 1hr
in
rain 24hr
in
rain mn
in
humidity
%
barometer
mb
20260831060040 73 59 0.0 0.0 0.00 0.00 0.00 79 1016.8
20260831060010 73 89 0.0 0.0 0.00 0.00 0.00 78 1016.7
20260831054539 74 59 0.0 0.0 0.00 0.00 0.00 79 1016.8
20260831054510 74 89 0.0 0.0 0.00 0.00 0.00 78 1016.8
20260831053039 74 59 0.0 0.0 0.00 0.00 0.00 78 1016.8
20260831053007 75 89 0.0 0.0 0.00 0.00 0.00 77 1016.9
20260831051538 74 59 0.0 0.0 0.00 0.00 0.00 76 1016.8
20260831051528 75 89 0.0 0.0 0.00 0.00 0.00 76 1016.7
20260831050039 74 59 0.0 0.0 0.00 0.00 0.00 77 1016.7
20260831050025 75 89 0.0 0.0 0.00 0.00 0.00 78 1016.8
20260831044531 74 60 0.0 0.0 0.00 0.00 0.00 77 1016.7
20260831044518 75 90 0.0 0.0 0.00 0.00 0.00 76 1016.6
20260831043030 75 60 0.0 0.0 0.00 0.00 0.00 77 1016.6
20260831043016 76 90 0.0 0.0 0.00 0.00 0.00 76 1016.6
20260831041530 75 60 0.0 0.0 0.00 0.00 0.00 77 1016.5
20260831041512 76 89 0.0 0.0 0.00 0.00 0.00 77 1016.5
20260831040030 75 61 0.0 0.0 0.00 0.00 0.00 75 1016.4
20260831040007 76 91 0.0 0.0 0.00 0.00 0.00 74 1016.6
20260831034534 76 91 0.0 0.0 0.00 0.00 0.00 73 1016.3
20260831034528 76 62 0.0 0.0 0.00 0.00 0.00 73 1016.1
20260831033054 76 62 0.0 0.0 0.00 0.00 0.00 74 1016.1
20260831033035 76 91 0.0 0.0 0.00 0.00 0.00 73 1016.2
20260831031528 76 61 0.0 0.0 0.00 0.00 0.00 73 1016.0
20260831031523 77 92 0.0 0.0 0.00 0.00 0.00 73 1016.1
20260831030030 77 91 0.0 0.0 0.00 0.00 0.00 72 1016.0
20260831030027 77 61 0.0 0.0 0.00 0.00 0.00 73 1015.8
20260831024531 78 94 0.0 0.0 0.00 0.00 0.00 68 1015.9
20260831024529 77 65 0.0 0.0 0.00 0.00 0.00 69 1015.7
20260831023035 79 100 0.0 0.0 0.00 0.00 0.00 71 1015.9
20260831023027 78 70 0.0 0.0 0.00 0.00 0.00 71 1015.7
20260831021529 79 121 0.0 0.0 0.00 0.00 0.00 68 1015.8
20260831021525 79 91 0.0 0.0 0.00 0.00 0.00 69 1015.6
20260831020030 80 121 0.0 0.0 0.00 0.00 0.00 65 1015.6
20260831020025 79 91 0.0 0.0 0.00 0.00 0.00 66 1015.5
20260831014528 81 121 0.0 0.0 0.00 0.00 0.00 63 1015.2
20260831014523 80 91 0.0 0.0 0.00 0.00 0.00 64 1015.3
20260831013035 81 121 0.0 0.0 0.00 0.00 0.00 62 1015.1
20260831013023 81 91 0.0 0.0 0.00 0.00 0.00 63 1015.0
20260831011534 82 121 0.0 0.0 0.00 0.00 0.00 62 1015.0
20260831011522 82 91 0.0 0.0 0.00 0.00 0.00 62 1015.0
20260831010035 83 121 0.0 0.0 0.00 0.00 0.00 59 1015.0
20260831010023 82 91 0.0 0.0 0.00 0.00 0.00 59 1014.9
20260831004530 84 121 0.0 0.0 0.00 0.00 0.00 57 1014.9
20260831004524 83 91 0.0 0.0 0.00 0.00 0.00 57 1014.7
20260831003030 85 121 0.0 0.0 0.00 0.00 0.00 55 1014.9
20260831003016 85 91 0.0 0.0 0.00 0.00 0.00 55 1014.8
20260831001626 87 91 0.0 0.0 0.00 0.00 0.00 53 1014.7
20260831001526 87 121 0.0 0.0 0.00 0.00 0.00 53 1014.8
20260831000015 88 91 0.0 0.0 0.00 0.00 0.00 52 1014.7
20260831000005 89 121 0.0 0.0 0.00 0.00 0.00 52 1014.7
20260830234539 89 91 0.0 0.0 0.00 0.00 0.00 49 1014.8
20260830234529 90 121 0.0 0.0 0.00 0.00 0.00 48 1014.9
20260830233044 90 91 0.0 0.0 0.00 0.00 0.00 48 1015.0
20260830233018 90 122 0.0 0.0 0.00 0.00 0.00 47 1015.0
20260830231536 90 92 0.0 0.0 0.00 0.00 0.00 47 1015.0
20260830231514 90 121 0.0 0.0 0.00 0.00 0.00 46 1015.0
20260830230037 90 92 0.0 0.0 0.00 0.00 0.00 46 1014.8
20260830230014 91 122 0.0 0.0 0.00 0.00 0.00 45 1015.1
20260830224535 91 91 0.0 0.0 0.00 0.00 0.00 44 1014.9
20260830224507 91 122 0.0 0.0 0.00 0.00 0.00 44 1015.0
20260830223035 91 91 0.0 1.0 0.00 0.00 0.00 43 1015.0
20260830223004 91 122 0.0 1.0 0.00 0.00 0.00 42 1015.1
20260830221539 91 96 0.0 1.0 0.00 0.00 0.00 43 1015.0
20260830221527 92 126 0.0 0.0 0.00 0.00 0.00 42 1015.1
20260830220134 91 142 0.0 1.0 0.00 0.00 0.00 42 1015.0
20260830220021 92 172 0.0 1.0 0.00 0.00 0.00 41 1015.1
20260830214533 91 132 0.0 3.0 0.00 0.00 0.00 44 1015.0
20260830214516 92 163 0.0 3.0 0.00 0.00 0.00 43 1015.1
20260830213036 92 74 0.0 1.0 0.00 0.00 0.00 46 1015.1
20260830213013 92 121 0.0 1.0 0.00 0.00 0.00 43 1015.3
20260830211530 92 62 0.0 0.0 0.00 0.00 0.00 43 1015.4
20260830211509 92 93 0.0 1.0 0.00 0.00 0.00 43 1015.4
20260830210127 92 88 0.0 1.0 0.00 0.00 0.00 42 1015.5
20260830210030 92 119 0.0 1.0 0.00 0.00 0.00 43 1015.5
20260830204527 92 54 0.0 0.0 0.00 0.00 0.00 43 1015.6
20260830204523 92 85 0.0 2.0 0.00 0.00 0.00 43 1015.7
20260830203043 92 85 0.0 1.0 0.00 0.00 0.00 42 1015.8
20260830203026 92 55 0.0 1.0 0.00 0.00 0.00 43 1015.8
20260830201524 91 48 0.0 1.0 0.00 0.00 0.00 44 1015.8
20260830201516 91 78 0.0 1.0 0.00 0.00 0.00 42 1015.9
20260830200022 91 77 0.0 2.0 0.00 0.00 0.00 45 1016.0
20260830200017 91 106 0.0 2.0 0.00 0.00 0.00 46 1016.1
20260830194521 91 49 0.0 1.0 0.00 0.00 0.00 45 1016.2
20260830194512 91 80 0.0 1.0 0.00 0.00 0.00 45 1016.3
20260830193031 92 95 0.0 2.0 0.00 0.00 0.00 43 1016.4
20260830193019 91 65 0.0 2.0 0.00 0.00 0.00 44 1016.3
20260830191528 92 76 0.0 0.0 0.00 0.00 0.00 42 1016.6
20260830191518 91 46 0.0 0.0 0.00 0.00 0.00 43 1016.6
20260830190030 91 43 0.0 2.0 0.00 0.00 0.00 45 1016.7
20260830190015 91 13 0.0 1.0 0.00 0.00 0.00 45 1016.6
20260830184532 91 72 0.0 1.0 0.00 0.00 0.00 44 1016.8
20260830184512 90 42 0.0 1.0 0.00 0.00 0.00 45 1016.6
20260830183021 90 96 0.0 2.0 0.00 0.00 0.00 46 1017.0
20260830183011 90 66 0.0 2.0 0.00 0.00 0.00 46 1016.9
20260830181512 89 226 0.0 5.0 0.00 0.00 0.00 50 1017.1
20260830181506 88 196 0.0 5.0 0.00 0.00 0.00 50 1016.9
20260830180037 88 115 0.0 1.0 0.00 0.00 0.00 52 1017.3
20260830180002 88 85 0.0 1.0 0.00 0.00 0.00 53 1017.0
20260830174609 87 159 0.0 0.0 0.00 0.00 0.00 53 1017.3
20260830174529 88 89 0.0 1.0 0.00 0.00 0.00 52 1017.6
20260830173121 87 58 0.0 1.0 0.00 0.00 0.00 55 1017.6
20260830173043 88 88 0.0 1.0 0.00 0.00 0.00 54 1017.7
20260830171605 87 91 0.0 1.0 0.00 0.00 0.00 54 1017.7
20260830171528 87 123 0.0 1.0 0.00 0.00 0.00 55 1017.8
20260830170055 86 76 0.0 1.0 0.00 0.00 0.00 58 1017.8
20260830170026 87 106 0.0 2.0 0.00 0.00 0.00 56 1017.9
20260830164552 86 97 0.0 1.0 0.00 0.00 0.00 58 1018.1
20260830164513 86 128 0.0 1.0 0.00 0.00 0.00 57 1018.0
20260830163050 84 109 0.0 1.0 0.00 0.00 0.00 59 1018.0
20260830163036 85 140 0.0 1.0 0.00 0.00 0.00 57 1018.0
20260830161600 83 60 0.0 0.0 0.00 0.00 0.00 64 1018.1
20260830161530 83 90 0.0 0.0 0.00 0.00 0.00 64 1018.0
20260830160041 82 60 0.0 1.0 0.00 0.00 0.00 68 1018.1
20260830160027 82 90 0.0 1.0 0.00 0.00 0.00 66 1018.2
20260830154539 80 59 0.0 0.0 0.00 0.00 0.00 70 1018.3
20260830154526 81 89 0.0 0.0 0.00 0.00 0.00 68 1018.3
20260830153042 79 59 0.0 0.0 0.00 0.00 0.00 67 1018.3
20260830153024 80 88 0.0 0.0 0.00 0.00 0.00 67 1018.2
20260830151622 79 98 0.0 1.0 0.00 0.00 0.00 71 1018.3
20260830151534 79 128 0.0 2.0 0.00 0.00 0.00 70 1018.3
20260830150051 78 94 0.0 0.0 0.00 0.00 0.00 72 1018.5
20260830150003 78 124 0.0 0.0 0.00 0.00 0.00 70 1018.3
20260830144554 76 81 0.0 1.0 0.00 0.00 0.00 72 1018.5
20260830144502 77 111 0.0 1.0 0.00 0.00 0.00 73 1018.4
20260830143043 74 80 0.0 0.0 0.00 0.00 0.00 74 1018.6
20260830143003 74 110 0.0 0.0 0.00 0.00 0.00 75 1018.5
20260830141539 73 80 0.0 0.0 0.00 0.00 0.00 76 1018.9
20260830141504 73 111 0.0 0.0 0.00 0.00 0.00 75 1018.7
20260830140036 72 81 0.0 0.0 0.00 0.00 0.00 82 1018.8
20260830140003 72 110 0.0 0.0 0.00 0.00 0.00 83 1018.7
20260830134534 71 80 0.0 0.0 0.00 0.00 0.00 86 1018.9
20260830134504 71 110 0.0 0.0 0.00 0.00 0.00 85 1018.7
20260830133035 69 80 0.0 0.0 0.00 0.00 0.00 87 1018.8
20260830133004 70 111 0.0 0.0 0.00 0.00 0.00 86 1018.7
20260830131531 68 79 0.0 1.0 0.00 0.00 0.00 89 1018.8
20260830131503 69 110 0.0 1.0 0.00 0.00 0.00 88 1018.7
20260830130029 67 61 0.0 0.0 0.00 0.00 0.00 87 1018.8
20260830130003 67 91 0.0 0.0 0.00 0.00 0.00 88 1018.6
20260830124536 66 61 0.0 1.0 0.00 0.00 0.00 88 1018.7
20260830124503 67 90 0.0 1.0 0.00 0.00 0.00 89 1018.5
20260830123030 66 73 0.0 0.0 0.00 0.00 0.00 89 1018.7
20260830123004 66 103 0.0 0.0 0.00 0.00 0.00 88 1018.6
20260830121528 65 73 0.0 1.0 0.00 0.00 0.00 87 1018.6
20260830121504 66 102 0.0 1.0 0.00 0.00 0.00 87 1018.4
20260830120028 65 73 0.0 0.0 0.00 0.00 0.00 90 1018.6
20260830120004 65 103 0.0 0.0 0.00 0.00 0.00 89 1018.5
20260830114525 65 73 0.0 0.0 0.00 0.00 0.00 88 1018.3
20260830114504 65 104 0.0 0.0 0.00 0.00 0.00 87 1018.1
20260830113023 66 65 0.0 1.0 0.00 0.00 0.00 85 1018.1
20260830113003 66 96 0.0 1.0 0.00 0.00 0.00 85 1017.9
20260830111522 66 66 0.0 1.0 0.00 0.00 0.00 86 1017.8
20260830111503 66 95 0.0 1.0 0.00 0.00 0.00 86 1017.6
20260830110021 66 66 0.0 1.0 0.00 0.00 0.00 87 1017.4
20260830110007 66 95 0.0 1.0 0.00 0.00 0.00 86 1017.4
20260830104520 67 66 0.0 0.0 0.00 0.00 0.00 86 1017.4
20260830104503 67 95 0.0 0.0 0.00 0.00 0.00 86 1017.5
20260830103030 66 66 0.0 1.0 0.00 0.00 0.00 88 1017.4
20260830103007 67 96 0.0 1.0 0.00 0.00 0.00 87 1017.4
20260830101518 67 65 0.0 0.0 0.00 0.00 0.00 89 1017.4
20260830101506 67 95 0.0 0.0 0.00 0.00 0.00 89 1017.4
20260830100023 67 96 0.0 2.0 0.00 0.00 0.00 88 1017.4
20260830100018 66 67 0.0 2.0 0.00 0.00 0.00 89 1017.4
20260830094517 66 67 0.0 1.0 0.00 0.00 0.00 88 1017.4
20260830094508 67 97 0.0 2.0 0.00 0.00 0.00 87 1017.3
20260830093025 66 67 0.0 0.0 0.00 0.00 0.00 86 1017.3
20260830093006 67 97 0.0 0.0 0.00 0.00 0.00 85 1017.3
20260830091514 67 67 0.0 0.0 0.00 0.00 0.00 85 1017.3
20260830091504 67 97 0.0 0.0 0.00 0.00 0.00 85 1017.3
20260830090012 67 67 0.0 0.0 0.00 0.00 0.00 84 1017.3
20260830090009 68 97 0.0 0.0 0.00 0.00 0.00 84 1017.3
20260830084512 67 67 0.0 1.0 0.00 0.00 0.00 85 1017.4
20260830084508 68 97 0.0 1.0 0.00 0.00 0.00 84 1017.3
20260830083011 68 91 0.0 0.0 0.00 0.00 0.00 84 1017.4
20260830083008 68 121 0.0 0.0 0.00 0.00 0.00 84 1017.3
20260830081510 68 121 0.0 0.0 0.00 0.00 0.00 84 1017.3
20260830080011 68 121 0.0 0.0 0.00 0.00 0.00 84 1017.3
20260830080009 67 90 0.0 0.0 0.00 0.00 0.00 84 1017.3
20260830074512 68 121 0.0 0.0 0.00 0.00 0.00 84 1017.3
20260830074510 67 90 0.0 0.0 0.00 0.00 0.00 85 1017.3
20260830073011 68 121 0.0 0.0 0.00 0.00 0.00 85 1017.5
20260830073008 67 91 0.0 0.0 0.00 0.00 0.00 85 1017.5
20260830071514 69 121 0.0 0.0 0.00 0.00 0.00 83 1017.6
20260830071507 68 90 0.0 0.0 0.00 0.00 0.00 83 1017.6
20260830070012 69 120 0.0 0.0 0.00 0.00 0.00 84 1017.7
20260830070005 68 90 0.0 0.0 0.00 0.00 0.00 84 1017.7
20260830064517 69 121 0.0 0.0 0.00 0.00 0.00 81 1017.7
20260830064503 69 91 0.0 0.0 0.00 0.00 0.00 82 1017.7
20260830063012 69 121 0.0 0.0 0.00 0.00 0.00 83 1017.6
20260830063003 69 91 0.0 0.0 0.00 0.00 0.00 83 1017.7
20260830061600 68 91 0.0 0.0 0.00 0.00 0.00 81 1017.8
20260830061515 69 121 0.0 0.0 0.00 0.00 0.00 80 1017.7